Regional Weather Roundup
Issued by NWS

Home | Current Version | Previous Version | Text Only | Print | Product List | Glossary On
Versions: 1 2 3 4 5 6 7 8 9 10 11 12 13 14 15 16 17 18 19 20 21 22 23 24 25
000
ASUS44 KJAN 180310
RWRMS

MISSISSIPPI HOURLY WEATHER ROUNDUP
NATIONAL WEATHER SERVICE JACKSON MS
900 PM CST SAT FEB 17 2018

NOTE: "FAIR: INDICATES FEW OR NO CLOUDS BELOW 12,000 FEET WITH NO
SIGNIFICANT WEATHER AND/OR OBSTRUCTIONS TO VISIBILITY.

MSZ001>002-007>008-010>013-018>021-025>028-034>036-180400-
NORTHWEST MISSISSIPPI

CITY           SKY/WX    TMP DP  RH WIND       PRES   REMARKS
BATESVILLE       N/A    N/A N/A N/A MISG        N/A
CLARKSDALE     CLOUDY    48  48 100 CALM      30.26R
CLEVELAND      CLOUDY    48  48 100 N6        30.25R
GREENWOOD      CLOUDY    49  47  93 N7        30.24R
GREENVILLE     CLOUDY    48  44  86 N10       30.24R
TUNICA           N/A     43  43 100 N5        30.27R
WINONA         CLOUDY    47  47 100 N8        30.23S
$$

MSZ003>006-009-014>017-022>024-029>033-037>039-180400-
NORTHEAST MISSISSIPPI

CITY           SKY/WX    TMP DP  RH WIND       PRES   REMARKS
ABERDEEN       CLOUDY    50  50 100 N8        30.24R
COLUMBUS AFB   CLOUDY    50  50 100 NW12      30.22R
CORINTH        CLOUDY    48  43  81 N9G16     30.23R
GOLDN TRIANGLE CLOUDY    50  48  93 N8        30.22R
STARKVILLE     CLOUDY    48  46  93 N6        30.24R
TUPELO         CLOUDY    48  44  86 NW7       30.22S
$$

MSZ040-058-180400-
CENTRAL MISSISSIPPI

CITY           SKY/WX    TMP DP  RH WIND       PRES   REMARKS
JACKSON INTL   NOT AVBL
JACKSON HAWKNS LGT RAIN  53  52  96 N5        30.21
MADISON        CLOUDY    50  50 100 CALM      30.20S
MERIDIAN KEY   RAIN      57  57 100 N7        30.19R FOG
MERIDIAN NAS   LGT RAIN  56  55  97 N5        30.20R
RAYMOND        MOCLDY    52  52 100 CALM      30.20S
VICKSBURG VKS  CLOUDY    54  54 100 NE5       30.22R
$$

MSZ059>079-180400-
SOUTH MISSISSIPPI

CITY           SKY/WX    TMP DP  RH WIND       PRES   REMARKS
COLUMBIA       CLOUDY    64  61  88 NW9G16    30.21R
HATTIESBURG    CLOUDY    72  62  71 NW8       30.15R
LAUREL         CLOUDY    61  57  85 N10G17    30.18R
MCCOMB         CLOUDY    62  58  86 N10       30.17R
NATCHEZ        LGT RAIN  55  54  96 NE9       30.20R
PINE BELT      MOCLDY    65  61  87 N13       30.18R
$$

MSZ080>082-180400-
COASTAL MISSISSIPPI

CITY           SKY/WX    TMP DP  RH WIND       PRES   REMARKS
BILOXI         FAIR      70  65  83 SW9       30.14R
PASCAGOULA     FAIR      68  64  87 CALM      30.15R
GULFPORT       FAIR      72  64  76 SW5       30.14R
$$

LAZ007>009-015>016-023>026-180400-
NORTHEAST LOUISIANA

CITY           SKY/WX    TMP DP  RH WIND       PRES   REMARKS
BASTROP        CLOUDY    49  49  99 CALM      30.24R
TALLULAH/VBURG CLOUDY    52  52 100 N10       30.22
VIDALIA        CLOUDY    55  54  94 N8        30.19R
$$




USA.gov is the U.S. government's official web portal to all federal, state and local government web resources and services.